STARLINK-32556, 61858

Orbit data source: Space-Track

STARLINK-32556, 61858 is a payload satellite owned by SpaceX/Seattle (US) in LEO that was launched on Thu, 07 Nov 2024 UTC via an FALCON 9 launch vehicle from the Air Force Eastern Test Range (AFETR). Payload-class satellites include a variety of spacecraft equipped with specific instruments for various scientific and technological missions. These include communications satellites like Starlink; space stations such as the ISS; scientific satellites like the Hubble; Earth observation satellites from companies like Planet Labs, Umbra, and HawkEye 360; GPS; miniature CubeSats for education and research; and military/defense satellites.

Loading next visibility...
Identifier
61858, 2024-202P
Orbit
LEO
Country
Flag of USUS
Related business
Manufacturer
SpaceX/Seattle
Mission
Operational Commercial Communications
Bus & Motor
STARLINK V2M, Unknown motor
Mass
730 kg wet, ~700 kg dry
Launch date (UTC)
2024-11-07 (10 months ago)
Launch vehicle
FALCON 9
Launch site
Air Force Eastern Test Range (AFETR)
Object type
Payload
Rocket body
Debris
Shape & HBR
Box + 2 Pan, 14.5 m
Radar Cross Section
33.884 m², Large (>1 m²)

Expand to show TLE details & history
Last TLE update: 20 hours ago

TLE from 20 hours ago
0 STARLINK-32556
1 61858U 24202P   25261.03793320 -.00001408  00000-0 -41669-4 0  9996
2 61858  43.0023 132.9665 0000505  52.1784 307.9114 15.27565273 48933
Epoch: 2025-09-18T00:54Z
TLE epoch observation values (Epoch: 2025-09-18T00:54:37.428Z)
Latitude
0.00003°
Longitude
122.10531°
Altitude
482.656 km
Speed
7.626 km/s
True Right ascension
08h 51m 51s
True Declination
0° 00' 00"
Sunlit
Object was in daylight at epoch
Visualization orbit readout
Latitude
Unknown
Longitude
Unknown
Altitude
Unknown
Speed
Unknown
Apparent Right ascension
Unknown
Apparent Declination
Unknown
Sunlit
N/A
Visualization observer readout
Local Sidereal Time
13:53:14
Azimuth
Unknown
Elevation
Unknown
Doppler factor
Unknown
Orbital elements
Apogee altitude
485.385 km
Perigee altitude
484.691 km
Semi-major axis
6,863.175 km
Eccentricity
0.00005
Inclination
43.0023°
RAAN
132.9665°
Arg. of periapsis
52.1784°
True anomaly
307.90683°
Mean anomaly
307.9114°
Eccentric anomaly
307.90912°
Mean motion
3.81729 °/min
Orbital period
94.31 mins
BSTAR
-0.000041669
Loading maneuver chart data...
Computing Atmospheric mass density...
Loading historical data...
Loading historical data...
Loading historical data...
Loading historical data...
Loading historical data...
Loading historical data...
Loading historical data...

Documentation

Showing up to 5 results
|